Погода в Цареве

Россия / Волгоградская область     48°39′52″N   45°22′19″E
темп.,
°C
ветер,
м/с
пор.,
м/с
влажн.,
%
обл.,
%
осадки,
мм/ч
давл.,
гПа
погр.,
м
20 апреля, вт
вт2000:00+12в3695100 0.0 1014235
03:00+11в3696100 0.0 1013207
06:00+12в4796100 0.1 1013314
09:00+15вюв6782100 0.1 1013679
12:00+15юв3688100 3.0 1013435
15:00+14вюв81494100 9.2 1011715
18:00+15вюв101682100 0.3 1011957
21:00+15юв101776100 0.4 1012840
21 апреля, ср
ср2100:00+13юв91781100 0.2 1013701
03:00+12юв91490100 1.3 1013446
06:00+12ююв71385100 0.0 1015566
09:00+13ю7985100 1.2 1016821
12:00+16юз5659100 0.3 10161401
15:00+15зюз556199 0.4 10171059
18:00+15ю236599 0.0 1018221
21:00+13ю3371100 0.1 102062
22 апреля, чт
чт2200:00+12юз227193 0.0 102042
03:00+11з3377100 0.0 102156
06:00+11зсз227916 0.0 102139
09:00+14зсз1159100 0.0 1022549
12:00+17зюз2249100 0.0 10231315
15:00+18з33414 0.0 10221796
18:00+17сз1245100 0.0 102233
21:00+14всв2252100 0.0 102212
23 апреля, пт
пт2300:00+11юв3573100 0.0 102286
03:00+10в227394 0.0 102211
06:00+10всв3578100 0.0 1022168
09:00+14св3462100 0.0 1023568
12:00+16св5554100 0.0 10221225
15:00+16св4552100 0.0 10211368
18:00+15ссв3459100 0.0 1020188
21:00+11всв22735 0.0 102023
24 апреля, сб
сб2400:00+10св22765 0.0 101914
03:00+9св22785 0.0 101810
06:00+10юв11775 0.0 101821
09:00+15ююз456186 0.0 1017713
12:00+17юз6753100 0.3 10161445
15:00+19юз6939100 0.6 10152546
18:00+17юз59508 0.0 1014345
21:00+12зсз597721 0.3 1016434